OE6NPC-WX Weather Reports


time (UTC)temp
C
wind
direction
speed
KPH
gust
KPH
rain 1hr
cm
rain 24hr
cm
rain mn
cm
humidity
%
barometer
mb
20260506164701 21 0.0 0.0 0.00 0.00 0.00 47 955.9
20260506163657 21 0.0 0.0 0.00 0.00 0.00 45 956.0
20260506162653 21 0.0 0.0 0.00 0.00 0.00 45 956.0
20260506161648 21 0.0 0.0 0.00 0.00 0.00 45 956.0
20260506160644 22 0.0 0.0 0.00 0.00 0.00 44 956.1
20260506155640 22 0.0 0.0 0.00 0.00 0.00 43 956.2
20260506154635 22 0.0 0.0 0.00 0.00 0.00 43 956.1
20260506153631 22 0.0 0.0 0.00 0.00 0.00 42 956.1
20260506152626 22 0.0 0.0 0.00 0.00 0.00 42 956.0
20260506151622 22 0.0 0.0 0.00 0.00 0.00 42 956.0
20260506150617 22 0.0 0.0 0.00 0.00 0.00 41 956.0
20260506145613 23 0.0 0.0 0.00 0.00 0.00 40 955.9
20260506144608 23 0.0 0.0 0.00 0.00 0.00 40 955.9
20260506143604 23 0.0 0.0 0.00 0.00 0.00 41 956.0
20260506142559 23 0.0 0.0 0.00 0.00 0.00 42 955.9
20260506141555 23 0.0 0.0 0.00 0.00 0.00 42 956.0
20260506140550 23 0.0 0.0 0.00 0.00 0.00 42 956.1
20260506135546 23 0.0 0.0 0.00 0.00 0.00 42 956.2
20260506134542 23 0.0 0.0 0.00 0.00 0.00 42 956.3
20260506133538 23 0.0 0.0 0.00 0.00 0.00 42 956.3
20260506132533 23 0.0 0.0 0.00 0.00 0.00 42 956.3
20260506131529 23 0.0 0.0 0.00 0.00 0.00 42 956.4
20260506130525 23 0.0 0.0 0.00 0.00 0.00 41 956.5
20260506125521 23 0.0 0.0 0.00 0.00 0.00 40 956.6
20260506124516 23 0.0 0.0 0.00 0.00 0.00 39 956.5
20260506123512 23 0.0 0.0 0.00 0.00 0.00 39 956.4
20260506122508 23 0.0 0.0 0.00 0.00 0.00 38 956.4
20260506121503 23 0.0 0.0 0.00 0.00 0.00 37 956.4
20260506120459 23 0.0 0.0 0.00 0.00 0.00 39 956.6
20260506115454 23 0.0 0.0 0.00 0.00 0.00 39 956.5
20260506114449 23 0.0 0.0 0.00 0.00 0.00 38 956.5
20260506113444 23 0.0 0.0 0.00 0.00 0.00 37 956.4
20260506112440 23 0.0 0.0 0.00 0.00 0.00 37 956.4
20260506111435 23 0.0 0.0 0.00 0.00 0.00 35 956.6
20260506110431 23 0.0 0.0 0.00 0.00 0.00 35 956.7
20260506105426 23 0.0 0.0 0.00 0.00 0.00 35 956.8
20260506104421 23 0.0 0.0 0.00 0.00 0.00 36 957.0
20260506103416 23 0.0 0.0 0.00 0.00 0.00 37 956.9
20260506102412 23 0.0 0.0 0.00 0.00 0.00 38 957.0
20260506101407 23 0.0 0.0 0.00 0.00 0.00 37 957.0
20260506100403 23 0.0 0.0 0.00 0.00 0.00 37 957.1
20260506095359 23 0.0 0.0 0.00 0.00 0.00 36 957.2
20260506094355 23 0.0 0.0 0.00 0.00 0.00 35 957.3
20260506093351 23 0.0 0.0 0.00 0.00 0.00 36 957.5
20260506092347 23 0.0 0.0 0.00 0.00 0.00 36 957.6
20260506091342 23 0.0 0.0 0.00 0.00 0.00 36 957.6
20260506090338 24 0.0 0.0 0.00 0.00 0.00 37 957.6
20260506085334 24 0.0 0.0 0.00 0.00 0.00 35 957.7
20260506084330 24 0.0 0.0 0.00 0.00 0.00 36 957.7
20260506083326 24 0.0 0.0 0.00 0.00 0.00 37 957.8
20260506082322 24 0.0 0.0 0.00 0.00 0.00 37 957.9
20260506081318 24 0.0 0.0 0.00 0.00 0.00 38 957.9
20260506080314 24 0.0 0.0 0.00 0.00 0.00 37 957.9
20260506073301 23 0.0 0.0 0.00 0.00 0.00 40 957.9
20260506072257 22 0.0 0.0 0.00 0.00 0.00 39 958.0
20260506071253 22 0.0 0.0 0.00 0.00 0.00 41 958.0
20260506070249 22 0.0 0.0 0.00 0.00 0.00 41 958.0
20260506062232 20 0.0 0.0 0.00 0.00 0.00 45 958.0
20260506061228 20 0.0 0.0 0.00 0.00 0.00 46 958.1
20260506060224 20 0.0 0.0 0.00 0.00 0.00 46 958.1
20260506051203 16 0.0 0.0 0.00 0.00 0.00 56 958.0
20260506050158 15 0.0 0.0 0.00 0.00 0.00 62 958.2
20260506044150 12 0.0 0.0 0.00 0.00 0.00 71 958.0
20260506043146 12 0.0 0.0 0.00 0.00 0.00 72 957.9
20260506042142 12 0.0 0.0 0.00 0.00 0.00 72 957.9
20260506041138 12 0.0 0.0 0.00 0.00 0.00 72 957.8
20260506040133 11 0.0 0.0 0.00 0.00 0.00 72 957.8
20260506035129 11 0.0 0.0 0.00 0.00 0.00 73 957.8
20260506034125 11 0.0 0.0 0.00 0.00 0.00 73 957.9
20260506033121 11 0.0 0.0 0.00 0.00 0.00 74 957.9
20260506032117 11 0.0 0.0 0.00 0.00 0.00 74 957.9
20260506031112 11 0.0 0.0 0.00 0.00 0.00 75 957.9
20260506030108 11 0.0 0.0 0.00 0.00 0.00 75 957.9
20260506025104 11 0.0 0.0 0.00 0.00 0.00 75 957.7
20260506024059 11 0.0 0.0 0.00 0.00 0.00 75 957.7
20260506023055 11 0.0 0.0 0.00 0.00 0.00 74 957.6
20260506022051 12 0.0 0.0 0.00 0.00 0.00 73 957.7
20260506021047 12 0.0 0.0 0.00 0.00 0.00 73 957.6
20260506020042 12 0.0 0.0 0.00 0.00 0.00 75 957.4
20260506015039 12 0.0 0.0 0.00 0.00 0.00 75 957.4
20260506014034 12 0.0 0.0 0.00 0.00 0.00 74 957.4
20260506013030 12 0.0 0.0 0.00 0.00 0.00 73 957.1
20260506012026 12 0.0 0.0 0.00 0.00 0.00 74 957.0
20260506011021 12 0.0 0.0 0.00 0.00 0.00 74 956.9
20260506010017 12 0.0 0.0 0.00 0.00 0.00 74 956.9
20260506005012 12 0.0 0.0 0.00 0.00 0.00 73 956.9
20260506004008 12 0.0 0.0 0.00 0.00 0.00 73 956.8
20260506003003 12 0.0 0.0 0.00 0.00 0.00 74 956.8
20260506001959 12 0.0 0.0 0.00 0.00 0.00 74 956.8
20260506000954 12 0.0 0.0 0.00 0.00 0.00 74 956.8
20260505235949 12 0.0 0.0 0.00 0.00 0.00 71 956.9
20260505234945 12 0.0 0.0 0.00 0.00 0.00 71 956.8
20260505233940 12 0.0 0.0 0.00 0.00 0.00 70 956.8
20260505232936 12 0.0 0.0 0.00 0.00 0.00 70 957.0
20260505231931 12 0.0 0.0 0.00 0.00 0.00 69 956.9
20260505230926 12 0.0 0.0 0.00 0.00 0.00 67 957.0
20260505225922 13 0.0 0.0 0.00 0.00 0.00 68 957.0
20260505224917 13 0.0 0.0 0.00 0.00 0.00 70 957.0
20260505223912 13 0.0 0.0 0.00 0.00 0.00 68 957.0
20260505222908 13 0.0 0.0 0.00 0.00 0.00 68 957.0
20260505221903 13 0.0 0.0 0.00 0.00 0.00 67 957.1
20260505220858 13 0.0 0.0 0.00 0.00 0.00 65 957.1
20260505215854 13 0.0 0.0 0.00 0.00 0.00 64 957.0
20260505214849 14 0.0 0.0 0.00 0.00 0.00 64 956.9
20260505213845 14 0.0 0.0 0.00 0.00 0.00 64 956.9
20260505212840 14 0.0 0.0 0.00 0.00 0.00 63 956.9
20260505211836 15 0.0 0.0 0.00 0.00 0.00 62 956.8
20260505210832 15 0.0 0.0 0.00 0.00 0.00 61 956.8
20260505205828 15 0.0 0.0 0.00 0.00 0.00 60 956.8
20260505204824 15 0.0 0.0 0.00 0.00 0.00 59 956.7
20260505203820 15 0.0 0.0 0.00 0.00 0.00 58 956.7
20260505202816 16 0.0 0.0 0.00 0.00 0.00 57 956.7
20260505201811 16 0.0 0.0 0.00 0.00 0.00 56 956.7
20260505200807 16 0.0 0.0 0.00 0.00 0.00 56 956.7
20260505195803 16 0.0 0.0 0.00 0.00 0.00 55 956.8
20260505194759 16 0.0 0.0 0.00 0.00 0.00 54 956.7
20260505193755 16 0.0 0.0 0.00 0.00 0.00 53 956.8
20260505192751 16 0.0 0.0 0.00 0.00 0.00 52 956.7
20260505191746 17 0.0 0.0 0.00 0.00 0.00 51 956.5
20260505190742 17 0.0 0.0 0.00 0.00 0.00 50 956.7
20260505185738 17 0.0 0.0 0.00 0.00 0.00 49 956.8
20260505184734 17 0.0 0.0 0.00 0.00 0.00 48 956.5
20260505183730 18 0.0 0.0 0.00 0.00 0.00 48 956.5
20260505182725 18 0.0 0.0 0.00 0.00 0.00 47 956.4
20260505181721 18 0.0 0.0 0.00 0.00 0.00 46 956.3
20260505180717 18 0.0 0.0 0.00 0.00 0.00 46 956.3
20260505175713 18 0.0 0.0 0.00 0.00 0.00 45 956.3
20260505174709 18 0.0 0.0 0.00 0.00 0.00 44 956.1
20260505173705 19 0.0 0.0 0.00 0.00 0.00 44 956.0
20260505172701 19 0.0 0.0 0.00 0.00 0.00 44 956.2
20260505171656 19 0.0 0.0 0.00 0.00 0.00 43 956.0
20260505170652 20 0.0 0.0 0.00 0.00 0.00 43 956.2
20260505165648 20 0.0 0.0 0.00 0.00 0.00 42 956.2